DL7GAI-7 Weather Reports


time (UTC)temp
F
wind
direction
speed
knots
gust
knots
rain 1hr
in
rain 24hr
in
rain mn
in
humidity
%
barometer
mb
20260502163318 76 90 1.7 4.3 0.00 0.00 0.00 27 1016.0
20260502161853 76 90 1.7 4.3 0.00 0.00 0.00 27 1016.0
20260502160623 76 90 1.7 4.3 0.00 0.00 0.00 27 1016.0
20260502151355 77 0 1.7 5.2 0.00 0.00 0.00 20 1016.9
20260502150109 73 90 1.7 6.1 0.00 0.00 0.00 31 1019.1
20260502123230 71 225 2.6 5.2 0.00 0.00 0.00 40 1020.0
20260502122005 71 225 2.6 5.2 0.00 0.00 0.00 40 1020.0
20260502120630 71 225 2.6 5.2 0.00 0.00 0.00 40 1020.0
20260502115335 71 315 2.6 7.0 0.00 0.00 0.00 43 1020.5
20260502114108 71 315 2.6 7.0 0.00 0.00 0.00 43 1020.5
20260502112710 68 270 3.5 7.0 0.00 0.00 0.00 42 1021.2
20260502111350 68 270 3.5 7.0 0.00 0.00 0.00 42 1021.2
20260502105908 68 225 2.6 6.1 0.00 0.00 0.00 44 1021.4
20260502104600 68 225 2.6 6.1 0.00 0.00 0.00 44 1021.4
20260502103235 67 270 1.7 4.3 0.00 0.00 0.00 48 1021.9
20260502101817 67 270 1.7 4.3 0.00 0.00 0.00 48 1021.9
20260502100600 63 225 1.7 4.3 0.00 0.00 0.00 49 1022.6
20260502091245 62 135 1.7 3.5 0.00 0.00 0.00 47 1022.8
20260502071035 54 180 0.9 2.6 0.00 0.00 0.00 60 1024.1
20260502065825 53 225 0.9 3.5 0.00 0.00 0.00 66 1024.0
20260502064508 53 225 0.9 3.5 0.00 0.00 0.00 66 1024.0
20260502063125 47 45 1.7 3.5 0.00 0.00 0.00 79 1024.6
20260502061729 47 45 1.7 3.5 0.00 0.00 0.00 79 1024.6
20260502060425 43 0 1.7 3.5 0.00 0.00 0.00 85 1024.9
20260502055045 43 0 1.7 3.5 0.00 0.00 0.00 85 1024.9
20260502053650 43 0 1.7 3.5 0.00 0.00 0.00 85 1024.9
20260502052245 41 0 1.7 3.5 0.00 0.00 0.00 88 1025.0
20260502050915 41 0 1.7 3.5 0.00 0.00 0.00 88 1025.0
20260502045600 43 0 1.7 1.7 0.00 0.00 0.00 84 1024.5
20260502044200 43 0 1.7 1.7 0.00 0.00 0.00 84 1024.5
20260502042940 43 0 1.7 1.7 0.00 0.00 0.00 84 1024.5
20260502041535 43 0 1.7 1.7 0.00 0.00 0.00 84 1024.5
20260502040230 42 0 0.0 3.5 0.00 0.00 0.00 85 1024.9
20260502034855 42 0 0.0 3.5 0.00 0.00 0.00 85 1024.9
20260502033435 45 0 1.7 3.5 0.00 0.00 0.00 80 1024.4
20260502032110 45 0 1.7 3.5 0.00 0.00 0.00 80 1024.4
20260502030740 45 0 1.7 3.5 0.00 0.00 0.00 80 1024.4
20260502025340 44 315 1.7 2.6 0.00 0.00 0.00 78 1024.6
20260502024040 44 315 1.7 2.6 0.00 0.00 0.00 78 1024.6
20260502022640 46 0 1.7 1.7 0.00 0.00 0.00 74 1024.3
20260502021300 46 0 1.7 1.7 0.00 0.00 0.00 74 1024.3
20260502015905 45 0 1.7 3.5 0.00 0.00 0.00 76 1024.6
20260502014540 45 0 1.7 3.5 0.00 0.00 0.00 76 1024.6
20260502013220 48 315 1.7 3.5 0.00 0.00 0.00 66 1024.4
20260502011950 48 315 1.7 3.5 0.00 0.00 0.00 66 1024.4
20260502010630 48 315 1.7 3.5 0.00 0.00 0.00 66 1024.4
20260502005255 47 315 1.7 5.2 0.00 0.00 0.00 69 1024.5
20260502003823 47 315 1.7 5.2 0.00 0.00 0.00 69 1024.5
20260502002430 47 0 3.5 5.2 0.00 0.00 0.00 69 1024.4
20260502001039 47 0 3.5 5.2 0.00 0.00 0.00 69 1024.4
20260501235645 49 270 2.6 5.2 0.00 0.00 0.00 63 1024.2
20260501234155 49 270 2.6 5.2 0.00 0.00 0.00 63 1024.2
20260501232840 55 270 3.5 5.2 0.00 0.00 0.00 51 1023.6
20260501231616 55 270 3.5 5.2 0.00 0.00 0.00 51 1023.6
20260501230301 55 270 3.5 5.2 0.00 0.00 0.00 51 1023.6
20260501224955 55 270 3.5 5.2 0.00 0.00 0.00 51 1023.6
20260501223525 56 90 1.7 3.5 0.00 0.00 0.00 47 1023.5
20260501222215 56 90 1.7 3.5 0.00 0.00 0.00 47 1023.5
20260501220835 56 90 1.7 3.5 0.00 0.00 0.00 47 1023.5
20260501215410 58 90 3.5 12.2 0.00 0.00 0.00 44 1023.3
20260501214035 58 90 3.5 12.2 0.00 0.00 0.00 44 1023.3
20260501212655 60 45 5.2 10.4 0.00 0.00 0.00 40 1023.0
20260501211319 60 45 5.2 10.4 0.00 0.00 0.00 40 1023.0
20260501205943 61 45 6.1 11.3 0.00 0.00 0.00 40 1022.7
20260501204559 61 45 6.1 11.3 0.00 0.00 0.00 40 1022.7
20260501203219 59 45 6.1 9.6 0.00 0.00 0.00 45 1022.7
20260501201859 59 45 6.1 9.6 0.00 0.00 0.00 45 1022.7
20260501200514 57 45 2.6 3.5 0.00 0.00 0.00 55 1022.8
20260501195139 57 45 2.6 3.5 0.00 0.00 0.00 55 1022.8
20260501193755 57 45 2.6 3.5 0.00 0.00 0.00 55 1022.8
20260501192433 66 0 1.7 2.6 0.00 0.00 0.00 35 1021.6
20260501191120 66 0 1.7 2.6 0.00 0.00 0.00 35 1021.6
20260501185845 66 0 1.7 2.6 0.00 0.00 0.00 35 1021.6
20260501184608 66 0 1.7 2.6 0.00 0.00 0.00 35 1021.6
20260501183243 73 0 0.0 2.6 0.00 0.00 0.00 22 1020.8
20260501181803 73 0 0.0 2.6 0.00 0.00 0.00 22 1020.8
20260501180412 72 180 1.7 7.8 0.00 0.00 0.00 24 1021.0
20260501175014 72 180 1.7 7.8 0.00 0.00 0.00 24 1021.0
20260501173555 71 90 5.2 7.8 0.00 0.00 0.00 24 1021.2
20260501172250 71 90 5.2 7.8 0.00 0.00 0.00 24 1021.2
20260501170909 71 90 5.2 7.8 0.00 0.00 0.00 24 1021.2
20260501165525 72 90 3.5 7.0 0.00 0.00 0.00 26 1021.6
20260501164305 72 90 3.5 7.0 0.00 0.00 0.00 26 1021.6